Location: Shenandoah County Park
(38.9356°N, 78.4524°W)
Time: 01:38:38
(UTC-04:00)

YUBILEINY - Visible Passes

Search period start: 16 April 2024 00:00
Search period end: 26 April 2024 00:00
Orbit: 1479 x 1508 km, 82.5° (Epoch: 15 April)

Date Brightness Start Highest point End Pass type
(mag) Time Alt. Az. Time Alt. Az. Time Alt. Az.
16 Apr ? 21:43:30 10° SW 21:50:52 29° WNW 21:58:20 10° NNW visible
17 Apr ? 05:57:21 10° NNE 06:04:35 27° ENE 06:11:42 10° SE visible
17 Apr ? 20:52:13 10° SSW 21:00:46 53° WNW 21:09:23 10° N visible
18 Apr ? 05:09:46 10° NNE 05:13:58 14° ENE 05:18:08 10° E visible
18 Apr ? 22:03:15 10° WSW 22:09:01 19° WNW 22:14:50 10° NNW visible
19 Apr ? 21:10:46 10° SW 21:18:36 35° WNW 21:26:31 10° N visible
20 Apr ? 05:25:41 10° NNE 05:32:15 23° ENE 05:38:45 10° ESE visible
20 Apr ? 20:19:54 10° SSW 20:28:38 63° W 20:37:25 10° N visible
20 Apr ? 22:25:09 10° WNW 22:27:25 11° WNW 22:29:42 10° NW visible
21 Apr ? 04:39:20 10° NE 04:41:29 11° ENE 04:43:38 10° ENE visible
21 Apr ? 21:30:06 10° WSW 21:36:39 23° WNW 21:43:17 10° NNW visible
22 Apr ? 05:42:27 10° N 05:50:18 35° ENE 05:58:03 10° SE visible
22 Apr ? 20:38:11 10° SW 20:46:23 42° WNW 20:54:39 10° N visible
23 Apr ? 04:54:08 10° NNE 04:59:53 19° ENE 05:05:34 10° ESE visible
23 Apr ? 21:50:43 10° W 21:54:56 14° WNW 21:59:12 10° NNW visible
24 Apr ? 20:57:09 10° SW 21:04:21 27° WNW 21:11:35 10° NNW visible
25 Apr ? 05:10:39 10° NNE 05:18:02 29° ENE 05:25:19 10° SE visible
